Location: *
(45.5667°S, 177.5167°W)
Time: 22:26:54
(UTC+00:00)

Cosmos 1992 Rocket - Pass Details

Date: 29 May 2022
Orbit: 758 x 766 km, 74.0° (Epoch: 24 June)

Event Time Altitude Azimuth Distance (km) Brightness Sun altitude
Rises 04:58:49 0° 0° (N) 3,224 7.6 -7.2°
Reaches altitude 10° 05:01:16 10° 7° (N) 2,305 6.7 -7.6°
Maximum altitude 05:06:11 43° 76° (ENE) 1,079 4.4 -8.4°
Drops below altitude 10° 05:11:10 10° 146° (SSE) 2,329 6.0 -9.2°
Enters shadow 05:12:25 - 150° (SSE) 2,796 6.4 -9.4°
